[[{"header":{"parameterUnit":"m.s-1","parameterCategory":1,"la1":30.2991,"la2":30.254,"lo1":-89.0895,"lo2":-89.0444,"dy":0.0017,"dx":0.0017,"nx":28,"ny":28,"refTime":"2024-10-21T09:00:00:Z","depth":0,"parameterNumber":2,"parameterNumberName":"U-component_of_WINDS"},"data":[0,0,0,0,0,0,0,0,0,0,0,0,0,0,0,0,0,0,0,0,0,0,0,0,0,0,0,0,0,0,0,0,0,0,0,0,0,0,0,0,0,0,0,0,0,0,0,0,0,0,0,0,0,0,0,0,0,0,0.3251,0.3251,0,0.3208,0.3207,0.3207,0.3186,0.3186,0.3186,0.3186,0.3142,0.3141,0.3139,0,0,0,0,0,0,0,0,0,0,0,0,0,0.3316,0.3315,0.3251,0.325,0.325,0.3208,0.3207,0.3207,0.3186,0.3186,0.3186,0.3186,0.3142,0.3141,0.3139,0,0,0,0,0,0,0,0,0,0,0,0,0,0.3282,0.3314,0.3251,0.3235,0.3233,0.3208,0.3207,0.3206,0.3186,0.3186,0.3186,0.3186,0.3143,0.3141,0.3139,0.3127,0,0,0.3134,0.3133,0,0,0,0,0,0,0,0,0.3284,0.3279,0.3238,0.3236,0.3234,0.3202,0.3214,0.318,0.3186,0.3204,0.3186,0.3186,0.3162,0.3159,0.315,0.3125,0.3123,0.3133,0.3132,0.3132,0.3131,0,0,0,0,0,0,0,0.3286,0.3281,0.3234,0.3237,0.3235,0.3229,0.3225,0.3207,0.3183,0.3202,0.3201,0.3196,0.3161,0.3152,0.3149,0.3123,0.3133,0.3132,0.3131,0.313,0.3085,0.3085,0,0,0,0,0,0,0.3291,0.3283,0.3235,0.3233,0.3259,0.3228,0.3223,0.3212,0.3183,0.3179,0.3196,0.3195,0.3155,0.3151,0.3147,0.3131,0.3132,0.313,0.3129,0.3085,0.3085,0.3085,0,0,0,0,0,0,0.3292,0.3287,0.3237,0.3257,0.3251,0.3227,0.3216,0.3212,0.3203,0.3179,0.3174,0.3192,0.3155,0.315,0.3132,0.313,0.3129,0.3127,0.3085,0.3085,0.3085,0.31,0,0,0,0,0,0,0.3294,0.3288,0.3283,0.3257,0.325,0.3223,0.3215,0.3211,0.32,0.3198,0.3173,0.3169,0.3155,0.3135,0.3131,0.3127,0.3126,0.3086,0.3085,0.3085,0.3099,0.31,0.31,0,0,0,0,0,0.3297,0.3289,0.3283,0.3277,0.3243,0.3223,0.3218,0.3202,0.32,0.3195,0.3179,0.317,0.3131,0.3134,0.3128,0.3124,0.3086,0.3085,0.3085,0.3099,0.31,0.31,0,0,0,0,0,0,0.3314,0.3285,0.3278,0.3261,0.3245,0.3219,0.3212,0.3203,0.3187,0.3186,0.3167,0.3161,0.3145,0.3133,0.3136,0.3111,0.3107,0.3106,0.312,0.312,0.3121,0.3124,0.3124,0,0,0,0,0,0.3316,0.3302,0.3277,0.3265,0.3257,0.3236,0.3226,0.3215,0.3197,0.319,0.3173,0.3156,0.3139,0.3129,0.3113,0.3097,0.3092,0.3092,0.3093,0.3093,0.3092,0.3083,0.3083,0.3084,0.3084,0.3084,0,0,0.332,0.3302,0.3294,0.3268,0.3253,0.3239,0.323,0.3215,0.3204,0.3188,0.317,0.3157,0.3136,0.312,0.3112,0.3109,0.3091,0.3093,0.3094,0.3092,0.3083,0.3083,0.3083,0.3084,0.3084,0.3084,0,0,0.3319,0.3305,0.3293,0.3278,0.3257,0.3243,0.3241,0.3216,0.3207,0.3189,0.3176,0.3163,0.3136,0.3121,0.311,0.3105,0.3096,0.31,0.3103,0.3095,0.3094,0.3094,0.3092,0.3091,0.3099,0.3099,0.3099,0,0.3327,0.3304,0.3288,0.3273,0.3262,0.3246,0.3234,0.3221,0.3196,0.3188,0.3186,0.3151,0.3136,0.3116,0.3114,0.3106,0.3102,0.3103,0.3096,0.3095,0.3095,0.3093,0.3092,0.31,0.31,0.31,0.31,0,0.3314,0.3299,0.3292,0.3268,0.3256,0.3243,0.3224,0.3214,0.3204,0.319,0.3172,0.3154,0.3133,0.3128,0.3118,0.3106,0.3105,0.31,0.3095,0.3096,0.3093,0.3092,0.3101,0.3101,0.31,0.31,0,0,0.3323,0.329,0.3288,0.3276,0.3252,0.324,0.3226,0.3206,0.3198,0.318,0.3168,0.3145,0.314,0.3128,0.3116,0.3109,0.3105,0.3104,0.3103,0.3105,0.3091,0.3095,0.3094,0.3099,0.3099,0.3099,0.3093,0,0.3319,0.3294,0.3278,0.3259,0.3245,0.323,0.3218,0.3201,0.3188,0.3174,0.316,0.3144,0.3139,0.3131,0.3123,0.3107,0.3102,0.3108,0.3087,0.3087,0.3093,0.3093,0.3097,0.3092,0.3092,0.3091,0.3091,0,0.3311,0.3294,0.3274,0.325,0.3244,0.3233,0.3214,0.3201,0.3182,0.3173,0.3159,0.3148,0.3133,0.313,0.3109,0.3113,0.3104,0.3095,0.3094,0.3091,0.3089,0.309,0.3091,0.309,0.309,0.309,0.309,0,0.3319,0.3292,0.3276,0.3266,0.3239,0.3232,0.322,0.3201,0.319,0.3174,0.3166,0.3148,0.3138,0.3124,0.3108,0.3107,0.3088,0.3084,0.308,0.308,0.3076,0.3077,0.3075,0.3071,0.3071,0.3071,0.3071,0,0.3316,0.3304,0.3279,0.3269,0.3255,0.3238,0.3224,0.3211,0.3195,0.3182,0.3168,0.3156,0.3136,0.3122,0.3109,0.3093,0.3089,0.3081,0.3078,0.3082,0.3083,0.3076,0.3075,0.3071,0.3071,0.3071,0.3071,0,0.3323,0.3306,0.3287,0.3263,0.3257,0.3247,0.3226,0.3216,0.3203,0.3187,0.3182,0.3161,0.3144,0.3126,0.3103,0.3094,0.3079,0.3074,0.3085,0.3083,0.308,0.3081,0.3074,0.3072,0.3069,0.3069,0.3069,0,0.3322,0.3312,0.3287,0.3277,0.3266,0.3251,0.324,0.3222,0.3211,0.3189,0.3181,0.3163,0.3147,0.312,0.3103,0.3085,0.308,0.3079,0.3077,0.3082,0.308,0.308,0.3079,0.3079,0.3079,0.3079,0.3079,0,0.3322,0.3314,0.3298,0.328,0.3267,0.3251,0.3236,0.3229,0.3208,0.3196,0.3178,0.3166,0.3142,0.3124,0.3104,0.3092,0.3082,0.308,0.3078,0.3082,0.3089,0.3085,0.3087,0.308,0.308,0.308,0.308,0.308,0.3324,0.3315,0.3296,0.3279,0.3265,0.3251,0.324,0.3225,0.321,0.3189,0.318,0.3162,0.3143,0.3115,0.3103,0.3089,0.3086,0.3084,0.3083,0.3082,0.3083,0.3092,0.3085,0.3085,0.3085,0.3085,0.3085,0,0.3323,0.331,0.3295,0.3273,0.326,0.3252,0.3234,0.3224,0.3208,0.3191,0.3176,0.3156,0.3138,0.312,0.3101,0.3093,0.3088,0.3089,0.3089,0.3086,0.3087,0.309,0.3093,0.3093,0.3093,0.3093,0.3093,0.3093,0.3321,0.3305,0.3295,0.3272,0.3259,0.3241,0.3231,0.3218,0.3205,0.3182,0.3168,0.3156,0.3138,0.3118,0.3102,0.3097,0.309,0.3092,0.3086,0.3087,0.3086,0.3086,0.3089,0.3091,0.3091,0.3086,0.3086,0.3086]},{"header":{"parameterUnit":"m.s-1","parameterCategory":1,"la1":30.2991,"la2":30.254,"lo1":-89.0895,"lo2":-89.0444,"dy":0.0017,"dx":0.0017,"nx":28,"ny":28,"refTime":"2024-10-21T09:00:00:Z","depth":0,"parameterNumber":3,"parameterNumberName":"V-component_of_WINDS"},"data":[0,0,0,0,0,0,0,0,0,0,0,0,0,0,0,0,0,0,0,0,0,0,0,0,0,0,0,0,0,0,0,0,0,0,0,0,0,0,0,0,0,0,0,0,0,0,0,0,0,0,0,0,0,0,0,0,0,0,-2.0117,-2.0119,0,-2.0217,-2.0218,-2.022,-2.0208,-2.0206,-2.0205,-2.0203,-2.0304,-2.0308,-2.0312,0,0,0,0,0,0,0,0,0,0,0,0,0,-1.9917,-1.992,-2.0117,-2.0119,-2.012,-2.0217,-2.0219,-2.022,-2.0208,-2.0206,-2.0204,-2.0202,-2.0303,-2.0308,-2.0313,0,0,0,0,0,0,0,0,0,0,0,0,0,-2.0009,-1.9922,-2.0117,-2.0126,-2.0127,-2.0217,-2.0219,-2.022,-2.0208,-2.0206,-2.0204,-2.0201,-2.0301,-2.0307,-2.0314,-2.0401,0,0,-2.0333,-2.0336,0,0,0,0,0,0,0,0,-2.0004,-2.0016,-2.0123,-2.0125,-2.0127,-2.0198,-2.0185,-2.0281,-2.0209,-2.0178,-2.0203,-2.02,-2.0271,-2.0279,-2.0303,-2.0405,-2.041,-2.0333,-2.0337,-2.034,-2.0342,0,0,0,0,0,0,0,-1.9997,-2.0012,-2.0157,-2.0125,-2.0127,-2.0125,-2.0135,-2.0203,-2.0236,-2.018,-2.018,-2.0192,-2.0271,-2.0297,-2.0306,-2.0411,-2.0333,-2.0339,-2.0343,-2.0345,-2.0592,-2.0594,0,0,0,0,0,0,-1.9989,-2.0007,-2.0154,-2.016,-2.0058,-2.013,-2.0142,-2.0178,-2.0236,-2.0242,-2.0194,-2.0191,-2.0288,-2.0298,-2.0309,-2.0417,-2.034,-2.0346,-2.0349,-2.0589,-2.0592,-2.0595,0,0,0,0,0,0,-1.9985,-2.0002,-2.015,-2.0083,-2.0102,-2.0136,-2.0176,-2.0181,-2.0207,-2.0246,-2.0252,-2.0214,-2.0286,-2.03,-2.0379,-2.042,-2.0349,-2.0354,-2.0586,-2.059,-2.0594,-2.0631,0,0,0,0,0,0,-1.9979,-2.0001,-2.0034,-2.0084,-2.0105,-2.0217,-2.0179,-2.0184,-2.0218,-2.0215,-2.0266,-2.0273,-2.0285,-2.0369,-2.0385,-2.0427,-2.0359,-2.0582,-2.0588,-2.0593,-2.0626,-2.0636,-2.0644,0,0,0,0,0,-1.9972,-2.0039,-2.0036,-2.0053,-2.0148,-2.022,-2.0232,-2.0246,-2.0221,-2.0255,-2.028,-2.0271,-2.0413,-2.0377,-2.0395,-2.044,-2.058,-2.0586,-2.0592,-2.0622,-2.0634,-2.0644,0,0,0,0,0,0,-1.9992,-2.0046,-2.0042,-2.0128,-2.017,-2.0218,-2.0261,-2.0257,-2.0306,-2.0301,-2.0316,-2.0328,-2.0407,-2.0431,-2.0391,-2.0528,-2.0493,-2.0503,-2.051,-2.0521,-2.053,-2.0523,-2.0364,0,0,0,0,0,-2.0007,-2.0061,-2.0105,-2.0177,-2.0198,-2.0226,-2.0258,-2.0265,-2.0308,-2.0325,-2.0356,-2.0399,-2.0453,-2.0488,-2.054,-2.0629,-2.0641,-2.0669,-2.0678,-2.0685,-2.0694,-2.0745,-2.0758,-2.0616,-2.0616,-2.0616,0,0,-2.0037,-2.0074,-2.0107,-2.0182,-2.0215,-2.0271,-2.0241,-2.0301,-2.0343,-2.0334,-2.0411,-2.0435,-2.0483,-2.0568,-2.0607,-2.059,-2.0736,-2.0693,-2.0698,-2.0703,-2.0753,-2.0766,-2.0778,-2.062,-2.0619,-2.0619,0,0,-2.0122,-2.0154,-2.0219,-2.0253,-2.0303,-2.0322,-2.0337,-2.0387,-2.0403,-2.048,-2.0475,-2.0525,-2.0618,-2.0653,-2.0683,-2.0783,-2.0777,-2.08,-2.0847,-2.0896,-2.0908,-2.0918,-2.0955,-2.0968,-2.0808,-2.0808,-2.0808,0,-2.0154,-2.0238,-2.0252,-2.0314,-2.0348,-2.0344,-2.0409,-2.0441,-2.0506,-2.053,-2.051,-2.0628,-2.066,-2.0754,-2.0779,-2.0802,-2.0822,-2.0794,-2.0905,-2.0915,-2.0925,-2.0961,-2.0975,-2.0811,-2.081,-2.081,-2.081,0,-2.0276,-2.0335,-2.038,-2.0445,-2.0483,-2.0547,-2.057,-2.0608,-2.0612,-2.0633,-2.0712,-2.0751,-2.0811,-2.0834,-2.0838,-2.0929,-2.0918,-2.0902,-2.0867,-2.0941,-2.0975,-2.0988,-2.0814,-2.0813,-2.0813,-2.0812,0,0,-2.0375,-2.0448,-2.0464,-2.0494,-2.0551,-2.0597,-2.066,-2.072,-2.0753,-2.0798,-2.0853,-2.0932,-2.0918,-2.0952,-2.096,-2.1004,-2.1083,-2.0983,-2.0984,-2.1001,-2.1188,-2.1201,-2.1217,-2.1079,-2.1082,-2.1084,-2.1185,0,-2.0467,-2.058,-2.0595,-2.0696,-2.0751,-2.0749,-2.0805,-2.0846,-2.0867,-2.0918,-2.0941,-2.0998,-2.0974,-2.0995,-2.1038,-2.1064,-2.1121,-2.1057,-2.1131,-2.1134,-2.112,-2.1234,-2.1248,-2.1341,-2.1198,-2.12,-2.1202,0,-2.0589,-2.0639,-2.0745,-2.0796,-2.082,-2.087,-2.0927,-2.0975,-2.1022,-2.1034,-2.1074,-2.1077,-2.1143,-2.1106,-2.1198,-2.1155,-2.1186,-2.1204,-2.1208,-2.1216,-2.1173,-2.1247,-2.1371,-2.1386,-2.1223,-2.1221,-2.122,0,-2.0653,-2.0747,-2.0823,-2.0849,-2.0909,-2.0945,-2.0971,-2.1016,-2.1052,-2.1102,-2.1126,-2.1182,-2.1214,-2.1258,-2.1277,-2.1247,-2.1369,-2.1332,-2.1382,-2.1382,-2.1409,-2.1407,-2.1541,-2.1427,-2.1427,-2.1426,-2.1426,0,-2.0754,-2.082,-2.0853,-2.09,-2.0974,-2.0991,-2.1064,-2.1089,-2.1129,-2.1182,-2.1183,-2.1232,-2.1253,-2.1306,-2.1321,-2.1397,-2.141,-2.1423,-2.1427,-2.1424,-2.1423,-2.1445,-2.144,-2.143,-2.1429,-2.1428,-2.1428,0,-2.0839,-2.0863,-2.0947,-2.0998,-2.1013,-2.1065,-2.1109,-2.1155,-2.1176,-2.1243,-2.126,-2.1293,-2.1356,-2.1379,-2.1454,-2.1464,-2.1553,-2.155,-2.1537,-2.1539,-2.1588,-2.1584,-2.1742,-2.1765,-2.1634,-2.1635,-2.1636,0,-2.0902,-2.0953,-2.101,-2.1046,-2.1074,-2.1131,-2.1169,-2.1187,-2.1226,-2.1284,-2.1324,-2.1386,-2.1437,-2.1537,-2.1568,-2.1627,-2.1626,-2.1678,-2.1635,-2.1632,-2.1629,-2.1627,-2.1633,-2.1686,-2.1687,-2.1689,-2.1689,0,-2.1013,-2.1023,-2.1077,-2.1136,-2.118,-2.1227,-2.1273,-2.1302,-2.1328,-2.1371,-2.1436,-2.1475,-2.1553,-2.1616,-2.1676,-2.1704,-2.1702,-2.1703,-2.1718,-2.1716,-2.1707,-2.1715,-2.1561,-2.1699,-2.1698,-2.1697,-2.1697,-2.1696,-2.109,-2.1136,-2.1184,-2.1244,-2.1281,-2.1324,-2.1371,-2.1398,-2.1453,-2.1518,-2.1526,-2.1596,-2.1643,-2.1724,-2.1755,-2.181,-2.1796,-2.1817,-2.1823,-2.1828,-2.1833,-2.1698,-2.1821,-2.182,-2.182,-2.182,-2.182,0,-2.1202,-2.1233,-2.1289,-2.1353,-2.1401,-2.1395,-2.1446,-2.1487,-2.1548,-2.1593,-2.1643,-2.1718,-2.178,-2.1816,-2.1878,-2.1915,-2.1916,-2.1931,-2.1929,-2.1936,-2.1841,-2.1822,-2.1929,-2.1929,-2.1929,-2.1929,-2.1929,-2.1929,-2.1266,-2.1344,-2.1361,-2.1457,-2.1488,-2.1557,-2.1587,-2.1627,-2.1663,-2.1747,-2.1798,-2.1822,-2.1864,-2.1929,-2.1985,-2.1994,-2.2017,-2.2034,-2.2042,-2.1953,-2.1942,-2.1931,-2.1914,-2.2039,-2.2039,-2.2133,-2.2134,-2.2134]}]]